Wind_Speed
19 22 26 27 27 26 25 23 22 22 22 24 25 24 23 21 20 20 19 17 16 16 14 12 12 11 11 11 10 10 10 9 8 7 6 5 5 5 5 5 5 4 4 5 5 6 6 6 7 8 7 6 6 6 6 7 8 8 8 9 10 10 11 11 11 11 12 13 13 14 15 17 17 18 19 19 20 21 21 21 21 21 21 21 21
21 19 19 21 25 27 26 24 22 22 23 24 26 27 27 26 24 23 22 21 19 19 18 15 14 13 12 12 12 11 11 12 11 11 10 9 8 8 8 8 9 9 8 8 7 8 9 9 9 9 10 9 9 8 8 8 9 10 10 11 12 12 13 14 14 14 14 14 15 16 17 18 18 19 20 20 21 22 22 22 22 22 22 22 22
22 23 22 20 22 26 27 26 25 26 27 27 27 27 27 27 27 27 25 23 22 22 21 19 17 16 14 14 14 13 13 13 12 12 12 12 11 11 10 11 12 12 12 12 11 10 11 13 13 12 12 12 12 11 11 11 11 12 13 13 14 14 15 15 17 17 17 17 17 18 18 19 19 20 20 21 21 22 23 23 23 23 23 24 24
25 27 27 26 25 26 29 30 30 31 33 34 33 32 32 32 31 31 29 26 25 26 25 23 22 20 19 18 18 16 16 15 13 12 12 13 14 13 13 13 13 15 15 16 17 15 13 14 14 13 12 13 14 14 14 14 14 14 15 16 16 17 18 19 19 20 20 20 19 20 21 21 21 21 22 22 22 23 23 23 24 24 24 24 24
28 30 31 32 33 33 34 35 36 36 35 36 35 34 35 37 36 35 34 31 29 30 29 27 27 26 25 24 23 22 21 20 18 16 14 13 14 15 15 14 14 16 18 19 19 19 17 16 15 15 16 17 17 17 17 17 17 17 18 18 19 19 20 21 22 23 23 24 23 23 23 24 24 23 24 24 24 24 25 25 25 25 25 25 25
22 25 27 29 31 31 30 32 35 35 34 34 34 34 37 41 41 39 38 35 33 33 34 33 32 29 26 25 26 26 25 25 24 23 21 18 16 15 16 17 17 18 19 20 19 19 18 18 18 19 21 21 21 21 21 21 21 22 22 22 22 23 23 23 24 24 25 26 26 26 26 26 27 26 27 28 28 27 27 27 27 27 27 26 26
13 16 18 20 22 22 23 26 29 31 31 31 30 31 36 39 36 32 32 33 34 34 36 36 33 29 26 27 27 28 29 28 26 25 25 24 21 18 18 19 20 21 21 21 21 19 20 20 21 22 23 23 23 24 24 25 25 26 26 27 27 27 28 28 28 29 28 28 28 28 28 28 28 28 29 30 31 31 31 31 30 29 29 29 29
10 10 12 13 14 16 18 20 22 24 25 25 24 25 28 28 25 23 24 28 28 27 27 28 28 26 26 26 27 29 32 30 25 22 24 25 25 24 23 23 23 24 24 24 24 23 23 23 23 24 25 25 26 26 27 28 29 30 30 31 31 31 32 32 32 33 34 33 32 31 31 31 30 30 30 31 33 33 34 35 34 33 31 31 30
11 11 12 12 12 13 14 15 16 18 18 19 20 22 22 20 20 21 22 24 24 22 21 21 21 21 22 23 25 28 30 29 25 22 24 26 28 30 29 27 25 25 26 27 27 26 26 26 26 27 27 27 28 29 31 32 33 33 34 34 35 35 35 35 35 35 36 36 36 36 36 35 33 32 32 33 34 34 35 36 37 36 36 35 33
17 17 17 17 16 17 17 17 18 19 19 19 20 20 21 20 20 21 22 23 24 23 22 22 21 22 23 24 26 27 27 26 25 24 24 26 28 31 32 30 28 27 28 29 29 28 28 28 28 29 29 29 30 32 34 35 36 37 37 37 37 37 37 37 37 37 37 37 37 37 38 38 36 35 36 36 36 36 37 37 38 38 38 38 37
24 24 24 24 23 23 24 23 23 23 23 23 22 23 24 25 26 26 26 26 26 25 25 25 24 25 26 27 27 28 27 26 25 25 24 24 26 29 31 32 31 29 29 29 29 29 29 29 30 31 31 31 32 34 36 38 39 39 39 39 38 38 38 39 39 38 38 39 38 38 38 38 37 37 38 37 38 39 38 38 39 39 39 40 39
27 26 26 26 26 26 27 27 27 27 26 25 25 25 25 25 26 27 28 28 28 28 27 27 28 28 28 28 28 29 30 29 28 27 26 24 25 27 30 32 32 31 30 30 30 30 29 30 31 32 34 35 36 37 38 40 41 41 41 40 39 39 39 39 39 39 39 39 39 38 38 39 39 38 37 38 39 39 39 38 38 39 39 40 39
26 26 25 25 25 25 27 28 29 30 29 28 27 26 25 24 24 24 25 26 28 29 28 28 28 28 28 28 29 30 30 29 29 29 28 27 27 28 30 32 33 32 31 31 31 31 31 31 32 33 35 36 37 39 41 42 42 42 42 41 40 39 38 38 37 37 38 39 40 39 38 39 40 38 36 37 38 38 38 37 37 38 39 39 38
24 24 24 24 24 24 25 26 27 28 29 29 28 27 25 24 24 23 23 23 24 26 27 27 27 27 27 27 27 28 29 29 29 28 27 27 28 29 30 33 34 33 32 31 32 32 33 33 34 35 36 37 39 40 42 42 42 42 42 42 41 40 39 39 37 36 36 37 39 40 39 39 40 38 36 36 37 37 37 37 37 39 39 39 38
21 21 22 22 23 23 24 24 25 26 27 28 28 27 26 26 25 24 24 23 23 24 25 26 26 26 26 26 26 27 29 30 28 27 27 27 27 28 30 33 33 32 32 32 32 33 34 35 36 37 38 39 40 41 41 42 41 41 41 41 42 42 42 41 40 40 39 39 39 40 40 40 40 39 37 36 37 37 37 38 39 40 41 41 40
22 22 23 23 23 24 25 26 26 26 27 27 27 27 27 27 26 26 25 25 25 25 25 25 26 27 27 26 27 29 31 30 28 28 28 28 28 28 30 32 32 31 32 32 34 35 36 36 37 37 38 39 40 41 41 41 39 38 39 40 41 42 43 42 42 42 43 43 43 42 42 41 41 39 38 38 38 38 39 40 41 42 42 43 43
23 24 25 25 26 27 27 28 28 28 28 28 28 28 28 27 27 26 26 26 26 26 27 27 27 28 28 28 30 31 30 29 29 29 29 29 29 28 30 32 32 32 32 33 35 36 36 36 37 38 38 40 41 41 41 40 38 38 39 40 41 42 42 42 43 44 44 45 45 45 44 43 42 40 39 39 40 40 42 43 43 43 43 45 45
24 25 25 26 27 28 28 28 28 29 29 29 28 28 28 27 27 27 27 26 26 26 27 28 28 29 30 31 31 30 29 29 30 31 31 31 30 29 30 32 33 33 33 35 36 36 36 36 37 38 38 40 40 40 40 39 38 39 39 40 41 42 42 43 44 45 46 46 46 46 45 44 43 41 41 41 41 42 43 44 44 44 45 45 46
25 26 27 28 29 29 29 30 30 31 31 30 30 29 29 29 29 29 29 29 29 29 29 30 30 31 32 32 31 30 29 30 31 31 31 31 30 30 31 33 33 34 35 36 36 36 35 36 37 37 38 39 40 40 39 38 38 38 39 40 41 42 43 44 46 47 47 47 46 45 44 44 43 43 43 43 43 43 44 44 44 45 45 45 46
29 30 30 31 31 31 31 32 32 33 34 34 34 34 34 34 34 34 34 34 33 33 34 34 34 34 34 33 32 32 32 32 31 31 31 31 31 31 32 33 34 35 35 36 36 35 35 35 36 37 38 39 39 39 39 38 38 39 40 42 43 44 44 45 46 46 47 47 47 46 45 44 44 44 44 44 45 44 44 44 44 44 45 45 46
33 34 34 34 33 33 34 34 35 36 36 37 38 38 38 39 39 38 38 37 36 37 38 37 37 37 36 36 35 34 33 32 32 32 32 32 32 32 33 33 35 35 35 35 34 33 33 34 36 37 38 38 39 39 40 40 42 43 45 46 46 46 46 46 46 46 46 47 47 47 47 47 46 45 45 45 45 45 45 45 45 45 45 46 46
36 37 37 36 36 36 37 37 38 38 38 39 40 40 40 41 42 41 40 39 39 40 40 40 39 39 38 38 37 36 34 33 33 32 32 32 32 32 32 34 35 34 33 32 31 31 33 35 36 36 37 37 39 41 43 44 45 47 48 48 48 47 47 47 47 47 47 47 47 47 48 47 47 46 46 45 45 45 46 46 46 46 46 46 47
38 39 39 39 39 39 39 39 39 38 38 39 41 42 43 43 44 44 43 42 42 42 42 43 42 40 39 38 37 36 34 34 33 32 31 32 32 32 33 33 33 32 31 30 31 32 33 34 35 36 37 38 41 43 45 45 46 47 47 48 48 47 47 47 47 47 47 47 47 47 47 47 47 47 47 47 47 47 47 47 47 47 46 46 47
38 39 40 40 41 41 42 42 42 41 40 40 41 42 43 45 46 46 45 44 42 42 44 44 41 38 37 36 35 34 33 32 32 32 32 32 32 31 31 32 31 30 29 30 30 31 31 33 36 37 39 40 42 43 45 45 46 46 46 47 47 47 48 48 49 49 49 49 49 49 49 49 50 50 50 50 50 50 50 49 49 48 47 47 46
40 40 40 41 42 43 43 43 42 41 41 41 41 41 41 42 44 43 42 41 39 38 38 37 34 32 32 32 32 31 31 31 32 32 31 30 30 29 29 29 29 28 28 28 28 29 32 35 38 39 39 40 41 42 43 44 44 45 46 46 47 48 49 50 51 52 53 53 53 53 53 53 53 53 53 53 52 52 51 51 50 49 48 47 46
41 41 41 42 42 42 41 40 39 39 39 39 39 39 39 41 41 40 39 37 35 33 32 30 29 29 29 28 28 28 29 30 31 30 29 28 27 27 26 25 26 25 26 27 29 31 33 35 37 37 38 38 39 40 41 42 43 44 46 47 48 50 51 52 52 53 54 54 55 55 55 54 54 54 53 53 52 52 51 50 49 47 46 46 46
39 39 39 39 38 36 36 36 36 36 36 37 38 38 39 40 40 38 36 35 33 31 30 29 28 28 28 27 26 26 27 28 28 27 26 25 24 22 22 23 24 25 27 29 30 31 32 32 33 34 35 36 37 39 41 42 44 45 47 48 50 51 52 52 52 53 53 53 54 53 53 53 53 52 51 50 50 49 48 47 46 44 43 43 43
36 36 36 36 35 35 36 36 36 37 37 38 39 39 38 38 36 35 34 33 32 31 31 30 29 27 26 24 22 22 24 24 23 21 21 21 20 20 21 23 25 27 28 29 29 29 30 30 31 32 34 36 38 39 41 43 45 46 47 48 49 50 50 50 50 50 51 51 51 51 51 51 50 50 49 48 47 45 44 43 42 41 40 39 40
34 36 36 37 38 39 39 39 38 38 39 39 38 37 36 36 35 33 32 31 31 31 31 29 26 23 22 20 18 18 19 18 17 17 18 19 20 21 22 24 25 27 27 27 27 28 28 29 31 33 35 36 38 39 41 43 44 46 47 48 48 49 49 48 48 48 48 48 48 47 47 47 47 47 46 45 44 42 40 38 38 37 37 36 36
37 39 39 41 41 40 40 39 39 38 38 38 37 37 37 36 35 34 33 32 31 29 26 23 21 19 19 17 15 14 14 15 16 17 18 19 20 21 22 23 24 24 25 25 25 27 28 30 32 33 34 36 37 39 41 42 44 45 46 46 46 46 46 45 45 45 45 45 44 44 44 43 43 42 41 41 39 37 35 34 33 32 32 32 31
38 40 40 41 40 39 38 38 38 38 38 37 37 36 36 34 33 32 30 27 25 22 19 18 18 17 18 17 13 12 14 15 16 17 17 18 18 19 19 20 21 21 23 24 26 28 29 30 31 32 33 35 37 38 40 41 42 43 42 42 41 41 40 40 40 40 41 40 40 39 38 38 37 36 34 34 33 31 30 30 29 29 28 27 27
37 38 39 39 38 37 37 37 38 37 35 33 31 29 27 26 25 23 21 19 18 18 18 18 18 17 17 14 12 13 14 15 16 17 17 16 16 16 17 18 19 21 24 25 27 28 28 29 29 30 32 34 35 37 38 39 39 39 39 38 37 35 35 35 35 35 35 34 34 33 32 31 31 30 29 28 28 27 26 25 25 25 24 24 25
35 36 37 37 36 36 34 33 32 29 25 23 21 19 17 16 16 17 18 19 18 18 18 18 18 16 13 11 13 14 14 14 14 14 14 13 14 15 16 18 19 22 24 24 25 25 26 26 27 28 30 32 34 35 37 38 38 37 36 36 34 32 31 31 32 31 30 29 29 28 27 28 28 27 27 27 26 26 24 22 22 22 22 23 24
33 34 34 32 29 26 24 22 20 19 18 17 16 15 14 15 16 18 20 21 20 19 19 18 16 13 11 12 12 12 12 11 11 11 11 12 13 15 17 19 19 20 21 21 22 22 23 24 26 28 31 33 35 36 36 36 35 34 33 32 30 29 29 28 28 28 27 27 26 26 26 26 27 27 26 25 24 23 22 20 20 20 21 22 23
29 28 24 19 14 11 10 10 12 14 16 16 14 13 15 16 17 18 19 18 18 17 16 15 13 12 10 10 9 8 9 9 9 10 11 12 14 16 16 16 17 18 18 19 19 20 22 25 27 30 32 34 35 35 35 34 33 32 30 28 26 26 26 26 26 25 25 25 25 25 25 24 24 24 24 23 22 21 21 20 20 20 21 22 22
20 14 9 6 3 2 2 4 5 7 10 12 13 15 17 18 18 18 17 15 14 13 12 11 10 9 8 7 7 7 8 8 9 11 12 12 13 13 13 14 15 16 16 17 19 22 25 27 29 31 32 34 35 35 35 33 31 28 26 25 25 24 24 24 24 23 23 23 23 22 22 21 20 19 19 18 18 18 18 18 19 19 20 22 23
10 6 7 8 8 8 10 12 14 16 19 21 22 22 21 20 18 17 16 14 13 11 10 9 8 8 7 6 6 7 7 8 10 11 11 10 10 10 11 12 12 13 15 18 21 23 25 27 29 32 33 35 35 35 33 31 28 26 25 24 24 24 23 23 22 22 22 21 20 19 17 16 14 14 13 13 12 13 14 15 16 17 19 20 22
11 15 18 19 19 19 19 20 21 22 23 23 23 22 21 19 17 15 14 12 10 9 9 9 8 7 6 5 5 6 7 8 8 8 8 8 8 9 9 10 12 15 18 20 22 24 26 29 31 32 34 35 36 35 32 29 28 27 26 24 23 22 22 21 21 20 20 18 16 14 12 10 10 10 11 11 11 13 14 15 16 17 17 18 20
15 19 21 23 23 22 22 22 21 21 20 20 19 19 17 15 14 13 11 10 9 8 8 8 7 7 7 6 5 5 5 6 5 4 4 5 6 7 9 12 14 16 19 21 23 25 28 30 31 33 34 35 35 34 32 30 29 27 26 25 23 22 21 20 19 18 16 14 11 9 8 8 9 10 11 12 13 14 14 13 14 15 15 16 16
15 17 19 22 23 22 21 21 20 19 18 17 17 16 15 13 11 10 9 9 7 4 4 5 5 6 6 5 4 3 2 2 2 1 2 4 6 9 11 13 15 17 20 22 24 26 28 30 31 32 33 34 34 32 31 30 29 28 26 25 24 22 20 18 17 15 12 10 8 7 7 9 11 13 13 12 12 13 13 12 12 13 13 13 12
16 16 18 21 21 20 19 19 18 18 17 16 15 15 14 12 10 9 8 8 7 7 6 5 4 3 3 2 1 1 2 3 3 3 5 6 8 10 12 14 16 19 21 23 24 26 28 30 30 31 32 33 32 31 30 29 29 28 27 26 25 22 20 17 15 12 10 8 6 6 8 11 14 14 13 12 13 14 14 13 13 14 14 13 12
14 15 18 20 18 16 17 18 17 16 16 14 13 13 13 12 11 9 7 6 6 6 6 5 4 3 2 1 0 2 3 3 4 4 6 8 9 11 13 16 18 20 21 23 25 26 28 29 29 30 31 32 31 31 30 29 28 28 27 27 25 23 19 16 13 11 9 8 7 8 10 13 15 16 15 14 14 14 15 15 15 16 16 15 13
13 15 18 19 16 14 14 14 13 13 13 13 12 12 12 11 10 8 6 5 4 4 4 5 4 3 2 1 1 2 2 3 4 5 7 8 10 12 14 16 18 20 21 23 25 26 28 28 28 29 30 30 30 31 31 30 29 29 28 28 26 23 20 16 13 11 10 9 8 10 12 14 15 15 16 16 15 14 13 14 14 14 14 13 12
13 15 17 16 13 10 11 12 12 12 13 12 12 10 9 8 6 5 5 5 4 3 3 4 3 3 2 1 1 2 2 3 4 6 7 9 11 12 15 16 18 20 21 23 24 26 27 27 27 28 29 28 29 30 30 30 29 29 29 29 27 24 20 17 14 12 10 9 9 11 13 14 15 15 16 17 16 13 12 12 12 11 11 10 8
15 15 14 12 10 9 12 13 13 12 12 11 9 8 6 5 4 4 4 3 3 2 2 2 2 2 2 1 1 2 3 4 5 7 8 9 11 13 15 17 18 19 21 22 24 25 26 26 26 26 27 27 28 29 30 30 29 28 29 29 27 24 21 18 16 13 10 9 10 12 14 16 17 18 18 17 15 12 10 10 11 11 11 9 5
15 13 12 10 8 9 11 12 12 11 10 9 7 6 5 3 3 3 3 2 2 2 2 2 2 2 1 1 1 2 3 5 6 8 9 10 11 13 15 17 18 19 21 22 23 24 25 26 25 25 26 26 27 28 30 30 30 28 28 28 27 25 23 21 18 15 12 11 12 14 15 17 20 20 17 14 12 9 7 8 9 10 10 9 6
12 10 9 9 8 9 10 10 10 9 9 8 6 5 4 3 3 2 2 2 1 1 1 1 1 1 1 1 2 4 5 6 7 9 10 11 12 13 15 16 18 19 20 21 22 23 24 25 25 25 25 25 26 27 29 31 31 30 29 28 27 26 25 23 20 17 15 14 15 16 18 19 20 18 14 10 7 6 4 4 4 6 9 10 8
10 8 8 7 7 8 9 9 9 9 9 7 5 3 3 3 3 2 2 2 1 1 1 1 1 1 2 3 3 4 6 7 8 10 11 12 13 14 15 16 18 19 20 21 22 22 23 24 24 24 24 25 25 26 28 30 31 31 29 28 27 27 26 23 20 18 17 17 17 18 19 19 18 16 14 9 6 3 2 1 0 2 6 7 7
9 9 9 8 7 7 8 8 9 9 7 5 3 3 3 3 3 2 2 1 1 1 1 1 2 2 3 4 4 5 6 8 9 10 12 13 14 15 15 16 17 18 19 20 21 22 22 23 23 23 24 24 24 26 27 29 30 30 30 29 27 26 24 22 20 19 18 18 19 19 19 18 16 16 15 12 8 4 1 3 4 3 2 2 3
9 8 8 8 8 7 7 8 9 9 7 5 4 3 3 3 3 2 2 1 1 0 1 2 2 3 3 4 5 6 7 8 10 11 12 13 15 16 16 16 17 18 19 20 20 21 21 22 22 22 23 23 24 25 26 27 28 30 30 29 27 25 24 22 20 19 18 18 18 18 18 18 16 16 15 13 11 8 3 3 5 5 4 3 1
7 7 5 5 6 7 7 8 8 8 7 6 5 4 3 4 3 3 2 1 1 2 2 3 4 4 5 5 6 8 9 10 11 12 13 14 15 16 16 17 17 18 18 19 20 20 21 22 22 21 22 23 23 24 24 25 26 28 29 29 27 26 25 23 21 19 18 18 17 17 17 16 16 15 14 13 12 10 7 4 1 3 5 5 4
Wind_Direction
222 214 216 219 223 228 233 236 241 247 253 256 258 259 258 257 257 260 265 265 266 268 265 260 260 261 262 263 259 250 248 251 254 260 266 270 282 296 304 314 324 333 342 344 345 348 351 358 355 347 343 339 332 326 318 308 299 293 288 285 282 278 276 273 268 267 270 271 270 268 269 269 270 273 275 276 277 278 279 279 279 278 277 277 277
248 242 234 228 226 231 235 238 243 251 258 261 263 265 265 264 262 262 263 266 268 270 268 265 264 265 265 265 268 269 267 263 260 262 265 268 277 284 292 304 311 312 316 320 322 325 327 330 332 330 328 325 323 321 318 314 308 302 295 291 289 286 282 279 276 270 267 268 270 268 267 268 267 267 267 268 270 272 274 275 276 277 278 277 276
259 257 258 255 243 237 236 237 243 250 255 260 264 266 267 268 269 267 265 265 269 271 272 270 268 269 271 271 271 275 278 275 272 271 273 278 284 286 290 298 304 307 309 311 311 311 314 316 316 317 316 313 311 309 309 308 306 304 301 297 294 292 290 287 284 280 276 273 272 272 271 270 270 269 269 268 268 269 269 270 270 272 273 275 276
263 261 262 265 260 250 244 244 249 254 254 256 261 264 264 265 266 267 266 265 266 268 269 271 272 271 273 275 273 274 277 279 280 279 278 282 287 289 291 295 298 299 301 303 302 299 300 304 304 304 306 307 305 301 298 297 295 294 294 294 293 292 291 289 288 286 284 281 279 279 278 276 275 274 273 272 271 272 272 271 269 268 268 270 272
259 259 260 262 261 257 254 252 253 256 257 259 264 265 263 261 260 262 263 262 262 263 262 263 265 265 269 272 272 273 275 277 280 282 280 278 282 289 293 294 294 295 297 298 297 294 292 293 294 296 300 303 304 301 298 296 295 293 291 291 292 292 292 291 291 290 289 288 286 285 284 283 282 281 280 278 275 273 273 273 272 271 270 269 269
258 257 258 258 257 256 254 252 252 253 256 260 264 267 267 262 257 256 261 266 269 269 266 263 258 256 260 264 267 269 271 273 275 278 281 282 282 286 288 289 293 296 298 299 299 297 294 291 292 296 300 302 301 300 298 297 295 294 292 292 291 291 291 290 290 289 289 289 289 288 287 285 284 284 285 283 281 278 276 274 273 273 273 272 271
258 256 255 256 257 256 253 250 250 252 256 260 263 267 269 264 255 252 262 273 275 273 274 275 272 266 264 267 269 267 262 262 265 271 278 283 284 284 283 284 290 295 296 296 296 297 298 297 295 297 299 300 299 297 297 297 296 295 293 292 290 289 288 288 287 287 287 287 288 288 289 288 287 286 285 284 283 283 281 279 276 274 273 272 272
264 260 257 255 257 259 258 255 255 257 261 265 265 266 269 267 262 263 272 279 278 275 277 281 283 280 278 280 283 278 267 261 261 268 279 285 287 288 287 286 287 289 291 291 290 291 296 298 296 297 298 298 297 296 296 296 296 295 294 292 291 290 288 288 287 287 287 287 288 289 289 290 291 291 289 287 285 283 283 282 281 279 277 274 273
269 270 268 264 261 261 262 262 264 266 268 269 268 268 271 272 273 274 276 276 274 272 274 276 280 282 282 283 288 288 282 276 272 275 281 286 289 289 289 288 288 287 285 285 284 286 292 294 293 293 295 295 295 294 295 296 296 296 295 294 292 291 290 290 289 289 288 287 287 288 288 290 292 293 292 290 288 287 285 283 283 282 282 281 278
274 276 276 274 273 272 271 272 275 276 279 279 278 279 280 280 279 278 277 275 274 273 273 273 274 275 277 278 280 282 283 281 279 279 282 283 284 284 285 286 287 286 284 282 282 284 288 290 289 289 289 290 291 292 293 295 295 295 295 294 293 292 291 291 291 291 290 289 288 288 288 289 291 293 292 291 290 288 286 285 284 284 284 282 281
280 279 278 276 276 276 277 278 280 282 282 282 280 280 281 281 280 279 278 278 278 278 277 275 274 274 276 278 278 276 277 278 278 279 280 278 277 279 282 284 286 285 284 283 282 282 284 285 286 286 287 286 287 289 291 292 293 293 293 292 291 291 291 291 291 291 291 290 289 289 289 290 290 290 291 291 289 287 287 286 286 285 284 283 282
284 282 281 279 278 277 278 279 281 283 284 283 281 279 278 278 278 277 277 277 277 276 275 275 276 276 275 276 276 277 278 280 279 279 278 275 275 276 278 281 284 283 282 282 281 280 281 281 282 283 285 286 288 289 290 290 290 291 290 290 289 289 289 290 289 289 289 289 289 289 290 291 290 289 290 289 287 287 287 287 286 286 285 284 284
279 279 279 280 280 280 280 279 279 281 282 283 282 281 280 278 277 277 278 278 279 279 279 278 277 277 276 275 276 277 278 279 278 277 277 275 274 274 274 276 279 279 279 280 280 280 280 280 280 281 282 285 287 288 288 288 289 289 288 288 287 286 285 285 285 285 286 286 285 285 287 288 288 288 288 286 285 286 287 286 286 285 284 284 284
275 276 276 277 279 279 279 278 278 278 278 278 278 278 278 278 277 278 278 278 279 280 281 281 280 280 279 278 278 278 278 277 274 274 276 275 273 272 271 272 273 274 276 277 277 278 278 278 279 279 280 282 283 284 285 286 287 288 288 288 288 287 285 284 284 285 285 285 283 282 282 284 285 284 284 283 283 284 285 285 285 284 284 284 284
276 278 277 278 280 280 280 279 278 277 277 277 277 277 277 277 276 276 276 276 277 277 278 280 280 280 280 281 280 279 277 276 275 276 277 275 273 273 271 269 269 271 273 274 274 274 275 276 277 278 279 281 282 284 285 286 287 288 288 289 289 288 287 286 287 288 288 287 285 282 281 281 282 281 281 281 280 280 281 283 283 284 284 284 283
274 277 279 280 281 281 281 281 278 276 275 274 274 276 277 278 278 278 277 276 276 277 278 279 281 281 282 281 279 277 276 278 280 280 277 274 273 272 270 269 269 270 270 272 273 273 274 275 276 277 279 280 281 282 283 285 286 288 288 287 286 286 286 287 289 289 289 287 286 285 283 282 281 280 280 282 281 280 280 281 282 284 284 283 281
275 279 283 285 285 284 284 283 281 278 275 273 273 273 274 275 277 278 279 279 280 281 282 282 283 284 282 280 277 277 278 278 279 278 275 274 274 272 269 268 270 271 271 271 271 272 274 275 276 277 278 278 279 280 281 283 285 286 286 286 286 286 287 289 289 288 287 287 287 286 285 284 283 281 280 281 283 283 282 281 283 284 284 282 281
278 284 287 287 287 286 285 283 280 278 276 274 274 274 275 276 278 279 281 282 283 284 285 285 284 282 280 278 278 280 280 278 276 275 274 275 275 271 268 270 272 272 271 271 271 273 275 276 277 277 277 277 278 280 282 283 284 284 285 286 287 288 289 289 288 287 286 286 286 286 285 285 284 281 278 278 279 281 282 282 282 283 282 281 281
281 285 286 285 285 284 283 281 278 276 275 274 274 274 274 275 277 279 281 283 284 286 286 285 283 281 280 280 281 281 279 277 276 276 276 275 273 269 268 270 271 271 270 271 273 274 276 277 278 278 278 279 280 283 285 286 286 286 287 289 290 290 289 287 286 286 285 285 285 285 285 284 283 281 279 277 277 278 279 280 280 280 279 279 278
281 282 282 281 281 281 280 279 278 277 278 278 278 278 278 278 277 279 280 282 284 286 285 283 283 283 282 283 282 279 277 276 277 276 276 275 272 270 270 271 270 269 269 270 271 273 276 278 280 281 282 284 286 289 290 289 288 289 291 292 293 292 289 287 286 285 284 284 284 284 284 283 282 281 280 279 279 278 278 277 277 276 276 275 275
281 280 279 278 278 278 278 278 278 278 279 280 280 280 281 281 280 280 280 282 285 285 284 282 283 283 283 283 282 280 277 275 274 275 276 277 276 275 274 272 270 269 269 269 271 273 276 279 280 282 284 286 289 291 292 291 291 292 294 294 294 293 291 289 288 287 286 285 285 284 284 284 283 282 280 279 279 279 278 277 276 275 274 274 273
282 281 281 280 279 279 279 278 278 279 278 278 279 279 279 280 280 279 280 282 284 285 283 281 281 281 282 281 280 279 277 275 274 276 277 278 278 277 275 273 271 271 271 272 273 275 276 279 281 283 286 288 289 291 291 292 292 293 293 293 292 291 290 289 289 288 287 286 284 283 283 283 282 281 280 279 279 279 278 277 277 277 276 275 275
281 280 280 279 279 280 280 279 279 278 278 278 278 278 279 279 280 279 280 282 284 283 281 279 278 278 278 279 279 278 276 273 273 275 276 277 277 277 276 274 274 274 275 275 275 276 279 281 284 286 287 289 289 290 290 290 290 290 290 290 291 291 290 290 289 289 288 287 286 285 284 284 284 283 282 282 282 281 281 280 279 279 279 278 277
279 278 278 278 278 278 278 278 279 279 280 279 279 279 280 280 280 280 281 283 283 282 279 277 276 276 276 276 277 276 274 272 272 272 273 273 275 276 276 277 278 277 275 274 275 278 282 284 284 286 287 288 288 288 289 289 290 291 291 292 292 293 293 293 293 292 291 291 290 289 288 287 287 286 285 285 284 284 284 284 283 282 281 280 278
280 279 279 277 276 276 276 277 278 279 279 278 277 278 278 278 279 280 281 281 281 279 276 276 277 277 275 274 274 273 272 270 269 268 269 270 272 274 276 278 279 277 275 276 278 281 283 284 284 285 285 286 287 288 289 291 292 292 293 293 294 294 294 293 293 293 293 292 292 291 290 290 289 288 287 286 286 285 285 284 283 283 281 280 278
282 281 278 276 275 276 276 276 276 276 276 275 275 275 275 275 276 277 278 279 277 274 274 276 277 275 273 272 271 269 267 265 265 265 267 268 270 273 276 278 278 278 279 281 283 283 283 283 283 284 285 287 288 290 291 292 293 293 293 293 293 293 292 292 292 291 291 291 290 290 289 289 288 287 287 286 285 285 283 282 281 280 279 278 276
281 280 278 277 277 278 278 277 277 276 276 275 274 273 272 273 274 276 276 274 272 271 273 276 275 272 269 268 265 263 261 262 264 265 266 266 270 275 278 279 280 281 282 283 283 282 283 284 284 286 288 290 291 292 293 294 294 293 293 293 292 292 292 291 291 291 290 290 289 289 288 288 287 287 286 285 284 283 282 281 280 278 276 274 272
279 279 280 282 283 282 281 281 280 279 277 275 273 272 272 273 274 274 271 269 267 268 271 274 273 269 265 261 258 258 261 264 266 266 266 267 271 275 276 277 279 280 281 281 282 283 285 287 289 291 293 294 295 295 295 294 294 293 293 293 293 293 293 292 292 291 291 290 289 289 288 287 287 286 285 285 284 283 282 281 279 276 274 270 267
280 281 282 283 283 283 283 282 281 278 275 273 272 272 272 272 272 270 267 266 267 268 270 270 267 263 260 256 255 259 265 268 266 262 263 267 270 272 273 275 278 279 281 283 286 288 291 294 295 296 296 295 295 295 294 294 295 295 295 295 294 294 294 293 293 292 291 290 289 288 287 286 286 285 285 285 284 283 282 280 277 275 272 269 266
282 282 282 282 282 282 282 281 277 274 272 272 272 272 271 270 268 265 264 265 266 268 267 262 258 256 251 245 245 254 258 258 256 257 261 266 270 273 274 276 279 282 285 289 292 294 296 297 296 295 294 294 295 295 296 296 296 296 296 296 295 295 295 294 293 292 290 289 287 286 285 285 285 285 286 285 285 284 283 281 278 275 272 268 265
281 280 280 280 281 280 278 276 274 273 273 272 271 269 267 265 263 261 261 261 260 259 257 254 252 243 230 221 227 244 252 254 257 259 261 263 266 270 274 277 282 287 291 293 295 296 296 295 295 295 295 296 297 297 297 297 297 298 298 297 297 296 295 293 292 290 288 287 286 285 285 286 286 287 288 288 287 286 284 281 279 276 272 268 263
280 280 279 279 278 277 276 275 274 272 271 269 268 266 263 259 255 252 250 246 241 240 242 240 228 212 205 212 234 250 254 255 256 256 258 263 267 272 278 284 290 293 294 295 295 295 296 296 296 297 298 299 300 301 303 304 304 304 303 301 300 299 297 295 293 292 290 289 288 288 288 288 288 289 290 290 289 288 287 283 278 274 270 265 261
280 279 280 279 279 277 274 271 268 266 264 263 261 256 247 239 233 230 230 230 227 226 224 216 201 191 198 224 241 244 245 247 249 253 260 267 273 280 286 291 293 293 293 294 295 296 296 297 300 303 306 308 310 312 312 312 311 309 308 306 305 303 301 299 298 296 295 293 292 291 290 287 286 286 286 286 286 288 288 285 280 275 268 262 258
281 282 283 283 280 275 267 260 255 252 251 248 241 228 218 215 216 220 224 222 212 201 194 189 184 187 203 219 227 232 238 244 249 257 265 273 281 288 292 293 293 292 293 294 295 297 300 307 313 316 318 319 319 319 318 316 314 312 309 308 306 305 304 302 300 299 297 295 293 291 289 286 284 283 283 283 284 286 287 286 282 276 271 266 262
286 287 286 282 275 266 255 248 246 245 242 237 227 214 206 203 202 203 204 199 188 179 173 171 174 182 193 204 217 228 237 245 255 265 274 283 288 290 291 294 296 296 296 299 304 312 320 324 326 326 325 325 324 323 321 320 318 315 313 311 310 309 306 303 301 298 297 295 292 290 288 287 285 284 284 285 285 286 287 287 283 279 274 270 265
288 284 273 254 236 222 207 196 199 206 202 191 181 176 172 169 167 166 165 162 159 158 160 162 167 176 187 202 220 233 245 259 271 278 283 284 283 285 289 293 294 297 305 316 326 332 333 331 330 330 329 329 328 327 325 324 322 321 320 319 318 315 311 307 304 300 297 295 293 292 291 290 290 289 288 287 287 286 286 285 283 280 277 274 269
251 200 148 129 123 126 133 138 141 146 148 147 145 143 141 138 137 137 138 138 141 147 158 167 175 184 195 211 230 246 262 273 277 280 282 281 280 282 286 290 298 313 329 337 339 338 335 334 334 334 334 334 333 331 329 328 327 329 329 327 324 320 316 312 307 302 298 295 294 294 294 296 297 297 296 295 294 291 290 287 283 280 278 275 273
176 144 126 118 117 120 123 126 127 128 129 127 126 125 124 125 127 129 133 140 150 165 177 184 189 193 200 217 244 260 267 272 277 280 282 281 280 284 296 316 332 340 345 345 343 341 339 338 338 338 338 338 336 333 332 333 335 335 333 331 328 325 320 316 310 304 300 299 299 300 302 305 308 308 308 311 312 308 305 301 297 293 288 282 279
150 135 123 117 114 112 110 110 110 110 111 114 117 118 121 125 130 138 147 151 156 170 182 180 181 188 198 213 240 261 269 273 276 271 266 274 293 316 338 347 348 348 350 349 347 345 343 341 341 342 342 340 337 336 336 336 337 336 334 333 333 331 326 321 314 308 305 305 308 312 317 321 325 325 324 325 326 324 322 318 313 308 302 294 288
142 131 121 115 112 110 108 105 102 102 106 113 117 116 115 117 119 122 125 122 123 152 190 182 174 180 187 199 224 255 277 291 304 308 318 336 348 354 355 353 352 355 356 353 350 348 345 343 344 345 343 342 340 339 338 337 338 339 339 338 338 336 333 327 321 316 317 321 324 331 338 340 338 333 326 322 325 329 329 324 317 312 310 305 302
136 130 127 121 116 116 117 117 117 117 118 121 124 121 119 119 117 113 116 126 149 181 189 180 180 183 173 174 237 334 2 4 4 0 356 360 2 0 357 357 359 1 360 356 353 350 347 346 347 347 346 345 345 343 341 340 342 343 344 343 342 340 338 336 331 329 333 339 340 345 352 350 347 341 332 321 317 319 321 320 315 311 309 308 307
147 143 140 130 119 118 122 124 128 130 128 130 135 136 136 138 141 144 154 168 183 183 161 148 167 185 160 147 4 27 25 3 353 359 5 8 7 2 1 3 4 4 2 358 355 351 349 348 350 350 349 349 348 347 346 347 348 349 349 347 346 346 345 344 342 342 348 351 346 346 352 354 354 353 347 335 324 317 316 317 316 311 308 306 302
156 153 148 136 122 120 126 127 130 136 137 139 142 142 140 142 148 162 178 186 192 183 153 150 169 173 146 131 91 61 41 2 357 8 13 12 8 5 6 7 6 5 4 0 357 354 351 351 353 354 352 351 352 353 353 353 355 356 355 352 351 351 351 350 352 357 0 355 340 336 343 349 351 350 346 341 334 327 322 320 318 313 309 304 299
152 152 149 138 125 124 133 136 138 143 143 140 137 134 132 136 149 169 182 180 179 177 161 156 161 153 136 133 107 68 32 7 11 15 15 14 10 7 9 10 7 6 5 2 359 356 353 354 358 357 352 352 356 359 359 360 1 0 358 356 355 356 357 359 4 9 6 351 335 329 333 338 339 337 334 333 331 327 323 325 328 330 326 317 303
145 143 140 133 129 143 153 151 148 146 142 138 135 134 135 143 155 167 176 175 171 164 158 157 151 136 126 115 78 42 10 5 12 12 11 13 11 8 10 10 8 7 7 4 1 357 354 356 1 358 351 353 1 5 5 6 6 4 2 359 358 1 4 8 14 16 6 345 333 328 326 328 328 325 323 322 321 320 323 330 338 348 352 349 340
147 139 133 131 137 154 159 154 151 150 149 146 143 141 143 156 165 165 167 171 162 149 152 159 143 122 105 38 25 11 355 360 7 6 5 8 9 8 9 8 7 8 7 5 2 359 356 358 2 358 351 355 4 8 9 10 11 10 8 4 2 5 10 13 15 13 4 348 340 335 332 331 329 325 322 317 311 312 325 336 344 1 14 17 23
153 143 140 143 146 150 154 156 162 168 166 158 150 150 160 173 180 171 161 156 144 135 144 148 124 103 54 1 1 355 351 356 1 359 359 1 3 5 7 6 7 9 8 5 3 1 357 359 2 358 352 356 5 10 12 13 13 13 13 9 6 9 14 15 13 10 3 356 350 346 343 341 336 334 335 331 314 310 330 341 349 24 42 50 64
158 153 151 148 144 151 161 170 181 185 178 164 157 173 191 188 178 165 156 148 135 123 102 43 23 14 353 347 345 343 345 350 353 354 354 355 356 359 2 3 5 8 7 5 5 2 358 359 2 359 354 356 3 10 13 14 15 15 16 14 12 13 15 15 14 11 5 359 356 352 349 347 345 346 353 358 344 322 317 280 280 61 67 70 72
163 164 166 166 166 171 180 191 197 195 187 177 182 207 215 199 177 166 163 154 132 91 356 331 329 331 333 334 335 338 341 345 347 349 351 351 351 353 355 359 3 7 7 5 5 2 359 360 3 1 356 355 1 8 13 15 16 16 17 18 17 16 15 15 16 16 11 4 359 355 352 353 356 359 3 5 0 349 303 184 178 166 136 100 67
173 174 176 182 189 194 199 204 206 206 203 201 203 208 209 198 186 179 175 170 158 318 308 309 316 323 327 330 332 335 338 341 343 344 346 347 347 347 349 353 359 3 5 5 4 2 0 1 3 2 359 357 0 5 10 13 16 17 18 19 20 19 17 15 16 19 18 13 6 0 356 357 2 7 7 6 7 11 31 137 170 192 206 202 124
184 191 193 197 206 212 213 213 217 220 219 216 211 205 204 208 208 203 204 226 273 300 307 313 322 326 329 332 334 335 336 337 339 339 340 342 342 342 344 348 353 358 2 3 2 2 2 1 2 3 3 3 3 4 6 10 14 17 18 19 20 22 21 17 15 16 20 20 16 10 4 1 4 8 10 10 13 19 28 45 123 201 214 215 212
Height
3090 3090 3091 3094 3098 3100 3102 3104 3105 3107 3108 3108 3109 3109 3110 3111 3112 3112 3112 3112 3113 3113 3113 3113 3114 3114 3114 3114 3114 3115 3115 3115 3115 3115 3116 3116 3116 3116 3116 3116 3117 3117 3117 3117 3117 3117 3117 3117 3117 3117 3117 3117 3117 3117 3117 3117 3117 3117 3117 3117 3117 3117 3117 3118 3118 3119 3119 3119 3119 3119 3119 3119 3119 3119 3119 3118 3118 3118 3117 3118 3117 3117 3118 3118 3118
3092 3091 3091 3093 3096 3099 3101 3103 3104 3105 3106 3107 3107 3108 3109 3109 3110 3111 3111 3111 3111 3111 3111 3112 3112 3112 3113 3113 3113 3113 3113 3113 3114 3114 3114 3114 3115 3115 3116 3116 3116 3116 3116 3116 3116 3116 3116 3116 3116 3116 3116 3116 3116 3116 3116 3115 3115 3115 3115 3115 3115 3115 3115 3115 3115 3116 3116 3116 3116 3116 3116 3116 3116 3116 3116 3116 3116 3115 3115 3115 3115 3115 3115 3115 3115
3091 3091 3092 3093 3096 3097 3099 3101 3102 3104 3105 3105 3105 3106 3107 3108 3108 3109 3109 3110 3110 3110 3110 3110 3110 3110 3111 3111 3111 3111 3111 3112 3112 3112 3112 3113 3113 3114 3114 3114 3114 3114 3115 3115 3115 3116 3116 3115 3115 3115 3115 3115 3115 3115 3115 3114 3114 3114 3113 3113 3113 3113 3113 3112 3112 3112 3113 3113 3113 3113 3113 3113 3113 3112 3112 3112 3112 3112 3112 3112 3112 3112 3112 3112 3112
3090 3091 3092 3092 3094 3096 3098 3099 3101 3102 3102 3102 3103 3104 3104 3104 3105 3106 3107 3107 3107 3108 3108 3108 3108 3108 3108 3109 3109 3109 3109 3109 3110 3111 3111 3111 3111 3111 3112 3112 3112 3112 3113 3113 3113 3113 3114 3114 3113 3113 3114 3114 3113 3113 3113 3113 3113 3112 3112 3111 3111 3110 3110 3110 3109 3109 3109 3110 3110 3110 3110 3109 3109 3109 3109 3109 3108 3108 3108 3108 3108 3109 3109 3109 3109
3088 3089 3090 3091 3092 3094 3095 3096 3097 3098 3099 3099 3100 3101 3101 3100 3101 3102 3103 3103 3104 3104 3104 3104 3104 3104 3105 3106 3106 3106 3107 3107 3107 3108 3109 3109 3109 3109 3110 3110 3110 3110 3110 3111 3110 3110 3111 3111 3111 3111 3111 3111 3111 3111 3111 3111 3111 3110 3110 3109 3108 3108 3107 3107 3106 3106 3106 3106 3106 3106 3106 3106 3106 3106 3106 3105 3105 3105 3104 3104 3104 3104 3105 3105 3105
3086 3087 3088 3088 3089 3091 3092 3093 3094 3095 3096 3097 3097 3098 3097 3096 3097 3099 3099 3100 3101 3101 3099 3099 3099 3100 3101 3102 3103 3103 3104 3104 3104 3105 3105 3106 3107 3107 3107 3107 3108 3108 3108 3108 3108 3108 3108 3108 3108 3108 3108 3108 3108 3108 3108 3108 3108 3107 3107 3107 3106 3105 3105 3104 3103 3103 3103 3102 3102 3102 3103 3102 3102 3102 3102 3101 3101 3101 3101 3100 3101 3101 3101 3101 3101
3086 3086 3086 3087 3087 3088 3089 3090 3091 3093 3093 3094 3094 3095 3094 3093 3095 3097 3097 3098 3098 3097 3096 3096 3097 3098 3099 3100 3100 3100 3100 3100 3100 3102 3103 3103 3104 3104 3104 3105 3105 3105 3105 3105 3105 3105 3106 3106 3106 3105 3106 3106 3105 3105 3105 3105 3104 3104 3104 3104 3103 3103 3102 3101 3100 3100 3099 3099 3098 3098 3098 3098 3098 3098 3098 3097 3097 3096 3096 3096 3096 3097 3097 3097 3097
3084 3085 3085 3086 3086 3087 3088 3088 3089 3090 3091 3091 3091 3092 3091 3092 3093 3094 3095 3095 3095 3094 3095 3095 3096 3096 3097 3098 3098 3097 3096 3096 3098 3100 3101 3101 3100 3101 3101 3101 3102 3102 3102 3102 3102 3102 3103 3103 3103 3102 3102 3102 3102 3101 3101 3101 3101 3100 3100 3100 3099 3099 3098 3098 3097 3096 3095 3094 3094 3094 3094 3093 3094 3094 3093 3093 3092 3092 3092 3091 3091 3092 3092 3093 3093
3083 3083 3084 3084 3085 3085 3085 3086 3087 3088 3088 3089 3089 3089 3089 3089 3090 3091 3092 3093 3093 3092 3093 3093 3093 3093 3094 3095 3094 3094 3094 3096 3098 3099 3100 3099 3098 3097 3097 3097 3098 3098 3098 3098 3098 3099 3099 3099 3099 3099 3099 3099 3098 3097 3097 3097 3096 3096 3096 3095 3095 3094 3094 3093 3093 3092 3091 3090 3090 3090 3089 3089 3089 3089 3088 3088 3087 3087 3087 3086 3085 3086 3087 3087 3088
3081 3082 3082 3083 3083 3083 3083 3084 3084 3085 3085 3086 3086 3086 3085 3086 3087 3088 3089 3090 3090 3090 3089 3090 3090 3091 3091 3091 3091 3091 3092 3094 3095 3096 3096 3096 3095 3094 3093 3093 3094 3094 3094 3094 3095 3095 3095 3095 3095 3095 3095 3095 3094 3094 3093 3093 3092 3091 3091 3090 3090 3089 3088 3088 3087 3087 3086 3086 3085 3085 3084 3084 3085 3084 3083 3082 3082 3081 3081 3081 3080 3081 3081 3081 3082
3079 3079 3080 3080 3081 3081 3081 3081 3082 3082 3082 3082 3083 3083 3083 3083 3083 3084 3085 3086 3086 3086 3086 3086 3087 3088 3087 3087 3087 3087 3088 3090 3091 3091 3092 3093 3092 3091 3089 3089 3089 3090 3089 3090 3091 3091 3091 3091 3091 3091 3091 3091 3091 3090 3089 3088 3088 3087 3086 3086 3085 3084 3083 3083 3082 3082 3081 3080 3080 3080 3080 3079 3080 3079 3078 3077 3076 3075 3075 3076 3075 3075 3075 3075 3076
3075 3075 3076 3076 3077 3077 3078 3078 3079 3079 3079 3079 3079 3080 3080 3080 3080 3080 3081 3081 3082 3082 3082 3082 3083 3084 3084 3083 3083 3082 3083 3084 3085 3086 3088 3089 3089 3088 3086 3084 3084 3085 3085 3085 3086 3087 3087 3087 3086 3086 3086 3086 3086 3085 3085 3084 3083 3083 3082 3081 3081 3080 3079 3078 3077 3077 3076 3075 3075 3075 3075 3074 3074 3074 3074 3072 3071 3070 3070 3070 3070 3069 3069 3069 3069
3072 3072 3073 3073 3073 3074 3074 3075 3075 3075 3076 3076 3076 3076 3076 3077 3077 3077 3077 3077 3077 3078 3078 3078 3078 3079 3079 3079 3079 3079 3079 3080 3080 3081 3083 3084 3084 3084 3083 3081 3080 3080 3081 3081 3082 3082 3082 3082 3082 3082 3081 3081 3081 3080 3079 3079 3078 3078 3077 3076 3076 3076 3075 3074 3074 3073 3072 3071 3070 3070 3070 3069 3068 3068 3069 3067 3065 3065 3064 3064 3064 3063 3063 3063 3063
3069 3069 3070 3070 3070 3070 3070 3071 3071 3071 3072 3072 3072 3073 3073 3073 3074 3074 3074 3074 3074 3074 3074 3074 3074 3074 3075 3075 3075 3075 3075 3076 3076 3077 3079 3080 3080 3079 3079 3077 3076 3076 3077 3077 3078 3078 3078 3077 3077 3077 3077 3077 3076 3075 3074 3074 3073 3072 3071 3070 3070 3070 3069 3069 3068 3068 3068 3066 3065 3064 3064 3064 3062 3062 3063 3062 3061 3060 3059 3058 3058 3057 3056 3057 3057
3065 3066 3066 3067 3067 3067 3067 3067 3067 3067 3067 3068 3068 3069 3069 3069 3070 3070 3070 3071 3071 3071 3071 3070 3070 3070 3071 3071 3071 3070 3070 3070 3072 3074 3075 3075 3075 3075 3073 3072 3072 3072 3073 3073 3073 3073 3073 3073 3072 3072 3072 3071 3071 3070 3069 3069 3068 3067 3066 3065 3064 3063 3063 3062 3062 3062 3062 3061 3060 3059 3059 3059 3058 3057 3057 3057 3056 3055 3054 3052 3051 3050 3050 3050 3051
3063 3063 3063 3064 3064 3064 3064 3064 3064 3064 3064 3064 3064 3065 3065 3065 3065 3066 3066 3067 3067 3067 3067 3067 3066 3066 3067 3067 3066 3065 3065 3066 3068 3069 3070 3070 3070 3070 3069 3067 3068 3068 3069 3069 3069 3068 3068 3068 3067 3067 3067 3066 3066 3065 3064 3064 3063 3062 3061 3060 3059 3058 3057 3057 3057 3056 3055 3054 3054 3053 3053 3053 3052 3052 3051 3050 3050 3049 3048 3047 3046 3044 3043 3043 3043
3060 3060 3060 3060 3060 3060 3060 3060 3060 3060 3061 3061 3061 3061 3061 3061 3062 3062 3062 3062 3062 3062 3062 3062 3062 3062 3062 3062 3062 3062 3062 3063 3064 3064 3065 3065 3065 3065 3064 3063 3064 3064 3064 3064 3063 3063 3063 3063 3063 3063 3062 3061 3060 3060 3059 3059 3059 3057 3056 3055 3054 3053 3053 3052 3051 3050 3049 3048 3048 3047 3046 3046 3046 3046 3046 3045 3044 3043 3041 3040 3040 3039 3037 3036 3035
3056 3057 3057 3057 3056 3056 3056 3056 3056 3056 3056 3057 3057 3057 3057 3058 3058 3058 3058 3058 3058 3058 3058 3058 3058 3057 3057 3057 3058 3059 3059 3059 3059 3059 3060 3060 3060 3060 3060 3059 3059 3059 3059 3058 3058 3058 3058 3058 3058 3057 3057 3056 3055 3055 3054 3054 3053 3052 3051 3049 3049 3048 3047 3046 3045 3044 3043 3042 3041 3040 3040 3039 3039 3039 3039 3039 3038 3037 3035 3034 3034 3033 3031 3030 3029
3053 3053 3053 3053 3053 3053 3053 3053 3052 3052 3052 3052 3053 3053 3053 3054 3054 3054 3054 3054 3054 3054 3053 3053 3053 3052 3053 3053 3054 3055 3055 3055 3055 3055 3055 3055 3056 3056 3055 3055 3055 3054 3053 3053 3053 3053 3053 3053 3052 3052 3051 3050 3050 3049 3049 3048 3047 3046 3045 3044 3043 3042 3041 3039 3038 3037 3036 3035 3035 3034 3034 3033 3032 3031 3031 3031 3031 3030 3029 3028 3027 3026 3025 3024 3023
3049 3049 3049 3049 3049 3049 3049 3049 3048 3048 3048 3048 3048 3048 3049 3049 3049 3049 3049 3049 3049 3049 3048 3048 3048 3048 3049 3049 3050 3050 3050 3050 3050 3050 3050 3051 3051 3051 3051 3050 3050 3049 3049 3049 3049 3048 3048 3048 3047 3046 3045 3045 3045 3044 3043 3042 3041 3041 3039 3038 3037 3036 3034 3033 3031 3030 3029 3028 3027 3027 3026 3026 3025 3024 3023 3023 3023 3022 3022 3021 3020 3019 3018 3018 3017
3044 3044 3045 3045 3045 3045 3045 3045 3045 3045 3045 3044 3044 3044 3044 3043 3043 3044 3044 3045 3045 3044 3043 3044 3044 3044 3044 3045 3045 3045 3045 3045 3045 3046 3046 3046 3046 3046 3046 3046 3045 3045 3045 3045 3044 3044 3044 3043 3042 3042 3041 3041 3040 3039 3038 3037 3035 3034 3033 3032 3030 3029 3027 3025 3024 3023 3022 3021 3020 3019 3018 3018 3017 3017 3016 3015 3015 3014 3013 3013 3012 3012 3011 3010 3010
3039 3039 3039 3039 3039 3039 3040 3040 3040 3040 3040 3040 3039 3039 3039 3038 3038 3038 3039 3040 3039 3038 3038 3039 3039 3039 3040 3040 3040 3040 3040 3040 3041 3041 3041 3041 3041 3041 3041 3041 3041 3040 3040 3040 3040 3040 3040 3039 3038 3038 3037 3036 3035 3034 3033 3031 3030 3028 3027 3025 3024 3022 3020 3018 3017 3016 3015 3014 3013 3012 3010 3010 3009 3008 3007 3007 3007 3006 3005 3004 3004 3004 3003 3003 3002
3034 3035 3034 3034 3034 3034 3034 3034 3034 3035 3035 3035 3034 3034 3033 3033 3032 3033 3034 3035 3034 3033 3033 3033 3034 3035 3035 3035 3035 3035 3035 3036 3036 3036 3036 3036 3036 3036 3036 3036 3036 3036 3036 3036 3036 3036 3036 3035 3034 3033 3032 3031 3030 3029 3027 3026 3024 3023 3021 3019 3017 3015 3013 3012 3010 3008 3007 3006 3005 3004 3003 3001 3000 2999 2998 2997 2997 2997 2996 2995 2995 2995 2995 2995 2994
3030 3030 3030 3030 3029 3029 3028 3028 3029 3029 3029 3029 3029 3028 3028 3027 3027 3027 3028 3028 3028 3027 3027 3027 3029 3030 3030 3030 3030 3030 3031 3031 3031 3031 3031 3031 3031 3032 3032 3032 3032 3032 3032 3032 3032 3032 3032 3031 3030 3029 3028 3027 3025 3023 3022 3020 3018 3016 3014 3012 3010 3008 3006 3004 3002 3000 2999 2998 2996 2995 2994 2993 2991 2990 2989 2988 2987 2987 2986 2986 2986 2986 2986 2987 2986
3025 3025 3025 3024 3024 3023 3023 3024 3024 3024 3024 3023 3023 3023 3023 3022 3021 3021 3022 3022 3022 3022 3022 3023 3024 3025 3025 3025 3025 3026 3027 3027 3026 3026 3026 3027 3027 3028 3028 3028 3028 3028 3028 3028 3028 3029 3028 3027 3026 3025 3024 3022 3020 3018 3016 3014 3012 3010 3008 3006 3004 3002 3000 2998 2995 2993 2991 2989 2988 2986 2985 2984 2983 2982 2981 2980 2979 2978 2978 2977 2977 2977 2977 2977 2978
3018 3018 3018 3018 3018 3018 3018 3019 3019 3019 3018 3017 3017 3018 3017 3016 3016 3016 3017 3017 3018 3017 3018 3019 3020 3020 3020 3020 3021 3022 3022 3021 3021 3022 3023 3023 3024 3024 3024 3024 3024 3024 3024 3024 3025 3025 3024 3023 3022 3021 3019 3017 3015 3013 3011 3009 3007 3004 3002 3000 2998 2995 2993 2991 2989 2987 2985 2982 2980 2979 2977 2975 2974 2973 2972 2971 2971 2970 2970 2969 2969 2969 2969 2968 2968
3011 3011 3011 3011 3012 3013 3013 3012 3012 3013 3012 3012 3012 3012 3011 3010 3011 3012 3012 3013 3013 3013 3014 3015 3016 3015 3016 3016 3017 3017 3017 3016 3017 3018 3019 3019 3020 3020 3020 3021 3021 3021 3021 3021 3021 3020 3020 3019 3017 3016 3014 3012 3010 3008 3005 3003 3001 2999 2996 2994 2991 2989 2986 2984 2982 2979 2977 2975 2973 2971 2969 2967 2966 2965 2964 2963 2962 2962 2961 2961 2960 2961 2961 2960 2960
3005 3005 3005 3005 3006 3006 3006 3006 3007 3007 3006 3005 3005 3005 3006 3006 3007 3008 3008 3008 3009 3009 3010 3010 3011 3011 3012 3012 3012 3012 3012 3013 3015 3016 3016 3016 3017 3018 3018 3018 3018 3019 3018 3018 3017 3017 3015 3014 3013 3011 3009 3007 3005 3003 3000 2998 2995 2993 2990 2987 2984 2982 2979 2977 2974 2972 2969 2967 2965 2963 2961 2960 2958 2957 2956 2955 2955 2954 2954 2953 2952 2952 2952 2952 2952
3001 3001 3001 3000 3000 3000 3000 3001 3001 3000 2999 2998 2999 3000 3000 3001 3002 3003 3003 3003 3004 3004 3005 3006 3007 3007 3008 3008 3009 3010 3011 3012 3013 3013 3014 3014 3015 3016 3016 3016 3016 3016 3015 3015 3014 3013 3011 3010 3008 3006 3004 3002 3000 2998 2995 2992 2989 2986 2984 2981 2978 2975 2972 2969 2967 2965 2962 2960 2958 2956 2954 2953 2951 2950 2949 2948 2948 2947 2947 2946 2945 2945 2945 2945 2945
2997 2996 2995 2995 2994 2995 2995 2995 2994 2993 2993 2993 2994 2994 2995 2996 2996 2997 2998 2998 2999 3000 3001 3002 3003 3004 3004 3005 3007 3008 3009 3010 3011 3012 3012 3013 3013 3013 3013 3013 3013 3013 3012 3011 3010 3009 3008 3006 3004 3002 3000 2998 2996 2993 2990 2987 2983 2980 2977 2974 2971 2968 2966 2963 2960 2958 2955 2953 2951 2950 2948 2946 2945 2944 2943 2942 2941 2941 2941 2940 2940 2939 2939 2940 2940
2992 2991 2990 2989 2989 2989 2989 2988 2987 2987 2987 2987 2987 2988 2989 2990 2991 2992 2993 2994 2995 2996 2998 2999 3000 3001 3002 3004 3006 3007 3008 3008 3009 3010 3011 3011 3011 3011 3011 3011 3010 3010 3009 3008 3007 3006 3004 3003 3001 2999 2996 2994 2991 2988 2985 2981 2978 2975 2972 2969 2966 2963 2960 2957 2954 2952 2949 2947 2946 2944 2943 2941 2940 2939 2938 2937 2936 2936 2935 2935 2935 2935 2935 2935 2936
2986 2985 2984 2984 2983 2983 2982 2981 2980 2980 2981 2981 2981 2982 2983 2984 2986 2988 2989 2991 2992 2994 2995 2996 2998 2999 3001 3003 3004 3005 3006 3007 3008 3008 3008 3008 3009 3009 3009 3008 3008 3007 3006 3005 3004 3003 3001 3000 2998 2995 2993 2990 2987 2983 2980 2976 2972 2969 2965 2962 2960 2957 2954 2951 2949 2946 2944 2942 2941 2939 2938 2937 2936 2935 2934 2933 2932 2931 2931 2931 2931 2931 2931 2932 2933
2981 2980 2979 2978 2977 2976 2976 2975 2974 2975 2976 2977 2977 2978 2980 2981 2983 2985 2987 2988 2990 2992 2993 2995 2996 2998 3000 3002 3003 3004 3005 3006 3006 3006 3006 3006 3007 3007 3007 3006 3006 3005 3004 3003 3001 3000 2998 2996 2994 2992 2989 2985 2981 2977 2973 2970 2966 2962 2959 2956 2953 2951 2948 2946 2943 2941 2939 2938 2936 2935 2934 2933 2932 2931 2930 2930 2929 2928 2928 2927 2927 2927 2927 2928 2929
2977 2975 2974 2972 2971 2970 2970 2970 2970 2971 2973 2974 2975 2976 2978 2979 2981 2983 2985 2986 2988 2990 2992 2993 2995 2997 3000 3001 3002 3003 3004 3004 3004 3004 3005 3005 3005 3005 3005 3004 3004 3003 3002 3001 2999 2998 2996 2993 2990 2987 2983 2979 2975 2972 2968 2965 2961 2957 2954 2951 2948 2946 2944 2941 2939 2937 2935 2934 2932 2931 2930 2929 2928 2927 2926 2926 2925 2925 2924 2924 2924 2923 2924 2924 2925
2973 2971 2970 2968 2967 2967 2967 2967 2968 2969 2971 2972 2974 2975 2977 2979 2980 2982 2984 2986 2988 2989 2991 2993 2995 2997 2999 3000 3001 3002 3002 3003 3003 3003 3003 3004 3004 3004 3003 3003 3002 3001 3000 2998 2997 2995 2992 2989 2986 2982 2979 2975 2971 2968 2964 2960 2956 2953 2949 2947 2944 2942 2940 2937 2935 2933 2932 2930 2929 2927 2926 2925 2924 2923 2923 2922 2922 2921 2921 2920 2920 2920 2920 2920 2921
2970 2969 2968 2967 2966 2966 2966 2967 2967 2969 2970 2972 2974 2975 2977 2979 2981 2983 2985 2987 2988 2990 2992 2994 2996 2997 2999 3000 3000 3001 3001 3002 3002 3002 3002 3003 3003 3002 3002 3001 3000 2999 2998 2996 2994 2991 2988 2985 2982 2979 2975 2972 2968 2964 2960 2956 2952 2949 2946 2943 2940 2938 2936 2934 2932 2930 2928 2927 2925 2924 2923 2922 2921 2920 2920 2919 2919 2918 2918 2918 2917 2917 2917 2917 2917
2969 2968 2967 2967 2967 2967 2967 2968 2969 2970 2971 2973 2974 2976 2978 2980 2982 2984 2986 2988 2990 2992 2994 2995 2996 2998 2998 2999 3000 3000 3000 3000 3000 3000 3001 3001 3001 3001 3001 3000 2999 2997 2995 2993 2990 2988 2985 2982 2979 2976 2972 2968 2964 2960 2956 2953 2949 2945 2943 2940 2937 2935 2933 2930 2928 2927 2925 2924 2922 2921 2920 2919 2919 2918 2917 2917 2917 2916 2916 2915 2914 2914 2914 2914 2913
2969 2968 2968 2968 2969 2970 2970 2971 2972 2973 2974 2975 2977 2979 2981 2983 2985 2987 2989 2991 2993 2994 2995 2996 2997 2997 2998 2998 2999 2999 2999 2999 2999 2999 2999 2999 3000 3000 2999 2998 2996 2994 2992 2990 2988 2985 2983 2980 2977 2973 2969 2965 2961 2957 2954 2950 2946 2943 2940 2937 2935 2932 2930 2928 2926 2924 2922 2921 2920 2919 2918 2917 2917 2916 2915 2915 2914 2913 2913 2912 2911 2911 2910 2910 2909
2971 2970 2970 2970 2971 2973 2974 2974 2975 2976 2977 2979 2981 2983 2984 2986 2988 2990 2991 2993 2993 2994 2994 2995 2996 2997 2997 2998 2998 2998 2998 2998 2998 2998 2998 2999 2998 2998 2996 2995 2994 2993 2991 2988 2986 2983 2980 2978 2974 2971 2967 2963 2959 2955 2951 2947 2944 2941 2938 2935 2932 2930 2927 2925 2923 2922 2920 2919 2918 2917 2916 2916 2915 2915 2914 2913 2912 2911 2910 2909 2908 2908 2907 2907 2906
2973 2972 2972 2972 2973 2975 2976 2977 2978 2980 2981 2983 2984 2986 2987 2989 2990 2991 2992 2993 2994 2994 2994 2995 2995 2996 2997 2997 2997 2998 2998 2997 2997 2998 2998 2997 2997 2996 2995 2994 2993 2991 2988 2986 2984 2981 2979 2976 2973 2969 2965 2961 2957 2953 2950 2946 2942 2939 2936 2933 2930 2927 2925 2923 2921 2920 2918 2917 2916 2916 2915 2915 2914 2913 2912 2911 2910 2910 2909 2908 2907 2906 2905 2904 2903
2974 2974 2974 2975 2976 2977 2978 2979 2981 2982 2983 2985 2986 2987 2988 2989 2990 2992 2993 2994 2994 2994 2994 2995 2995 2996 2996 2997 2997 2997 2997 2997 2997 2997 2997 2996 2995 2995 2994 2993 2991 2988 2986 2985 2983 2980 2977 2975 2972 2968 2964 2960 2956 2952 2949 2945 2940 2937 2934 2931 2928 2925 2923 2921 2919 2918 2916 2916 2915 2915 2914 2914 2913 2912 2911 2910 2909 2908 2907 2906 2905 2904 2903 2902 2901
2975 2975 2976 2977 2978 2979 2980 2981 2982 2983 2985 2986 2987 2988 2988 2989 2991 2992 2993 2994 2994 2994 2995 2995 2996 2996 2996 2996 2996 2996 2997 2997 2997 2997 2996 2995 2995 2994 2993 2991 2989 2987 2985 2983 2981 2979 2976 2974 2971 2967 2963 2959 2955 2951 2947 2943 2939 2935 2932 2929 2926 2924 2922 2920 2918 2916 2915 2915 2914 2914 2914 2913 2912 2911 2910 2909 2908 2907 2906 2905 2904 2902 2901 2900 2899
2976 2977 2978 2979 2980 2981 2982 2983 2984 2985 2986 2987 2988 2989 2990 2991 2992 2993 2994 2994 2994 2994 2995 2995 2995 2996 2996 2996 2996 2996 2997 2997 2997 2996 2995 2994 2994 2993 2991 2989 2988 2986 2984 2982 2980 2978 2976 2973 2970 2966 2962 2958 2954 2950 2946 2942 2938 2934 2931 2928 2926 2923 2921 2919 2917 2915 2915 2914 2914 2913 2913 2912 2911 2910 2909 2908 2907 2905 2904 2903 2902 2901 2899 2898 2897
2978 2979 2979 2980 2981 2982 2983 2984 2985 2986 2987 2988 2989 2990 2991 2992 2993 2993 2993 2994 2994 2994 2994 2995 2995 2995 2996 2996 2996 2996 2996 2996 2996 2995 2994 2994 2993 2991 2990 2988 2987 2985 2983 2981 2979 2977 2975 2972 2969 2966 2962 2959 2955 2951 2946 2942 2938 2934 2931 2928 2925 2923 2920 2918 2916 2915 2915 2914 2914 2913 2912 2911 2910 2909 2908 2907 2906 2904 2903 2902 2901 2899 2898 2896 2895
2979 2980 2981 2982 2982 2983 2984 2985 2986 2987 2988 2989 2990 2991 2991 2992 2992 2993 2993 2993 2994 2994 2994 2995 2995 2995 2996 2996 2996 2996 2996 2996 2995 2994 2994 2993 2992 2990 2989 2987 2986 2984 2983 2980 2978 2977 2974 2972 2969 2966 2963 2959 2955 2951 2947 2943 2939 2935 2932 2928 2925 2922 2920 2918 2916 2915 2915 2914 2914 2912 2911 2910 2909 2908 2907 2905 2904 2903 2902 2902 2900 2899 2897 2896 2894
2980 2981 2982 2983 2984 2984 2985 2986 2987 2988 2989 2990 2990 2991 2992 2992 2992 2993 2993 2993 2994 2994 2994 2995 2995 2995 2995 2996 2996 2996 2996 2995 2994 2994 2993 2992 2991 2989 2988 2987 2985 2984 2982 2980 2978 2976 2974 2971 2968 2966 2963 2960 2956 2952 2948 2944 2940 2936 2933 2930 2926 2923 2920 2918 2916 2916 2915 2914 2913 2912 2910 2909 2907 2906 2904 2903 2902 2902 2902 2901 2900 2899 2898 2897 2895
2981 2982 2983 2984 2984 2985 2986 2987 2988 2989 2990 2990 2990 2991 2992 2992 2992 2993 2993 2993 2994 2994 2995 2995 2995 2995 2996 2996 2996 2996 2996 2995 2994 2993 2993 2991 2990 2989 2987 2986 2985 2983 2981 2979 2978 2976 2974 2971 2968 2966 2963 2960 2956 2952 2949 2946 2942 2938 2934 2931 2928 2924 2921 2918 2917 2916 2915 2914 2913 2911 2909 2908 2906 2904 2902 2901 2901 2901 2901 2901 2901 2900 2899 2898 2898
2982 2983 2984 2984 2985 2986 2987 2988 2989 2989 2990 2990 2990 2991 2991 2992 2992 2993 2993 2994 2994 2994 2995 2995 2995 2995 2996 2996 2996 2996 2995 2994 2994 2993 2992 2991 2990 2988 2987 2986 2984 2982 2981 2979 2977 2975 2974 2971 2968 2965 2963 2960 2957 2953 2950 2947 2943 2939 2935 2932 2929 2925 2922 2920 2918 2917 2915 2914 2912 2911 2909 2907 2905 2903 2901 2900 2900 2900 2901 2901 2901 2900 2900 2900 2900
2983 2983 2984 2985 2986 2986 2987 2988 2989 2989 2990 2990 2990 2991 2991 2992 2992 2993 2993 2994 2994 2995 2995 2995 2995 2995 2996 2995 2995 2995 2995 2994 2993 2992 2991 2990 2989 2988 2987 2985 2983 2982 2980 2979 2977 2975 2974 2971 2968 2966 2963 2961 2957 2954 2951 2948 2945 2941 2937 2933 2930 2927 2925 2922 2920 2918 2916 2915 2913 2911 2910 2908 2906 2904 2902 2901 2900 2900 2900 2900 2901 2901 2901 2901 2901
2983 2984 2985 2985 2986 2987 2987 2988 2989 2989 2990 2990 2990 2991 2991 2992 2993 2993 2994 2994 2994 2995 2995 2995 2995 2995 2995 2995 2995 2994 2994 2993 2992 2992 2991 2990 2989 2988 2986 2985 2983 2981 2980 2978 2977 2975 2974 2971 2969 2966 2963 2961 2958 2955 2952 2949 2946 2942 2939 2935 2932 2929 2927 2924 2922 2919 2917 2915 2914 2912 2911 2909 2907 2905 2904 2903 2902 2901 2900 2901 2901 2901 2901 2901 2902
2984 2985 2985 2986 2986 2987 2987 2988 2988 2989 2989 2990 2990 2991 2992 2992 2993 2993 2994 2994 2994 2995 2995 2995 2995 2995 2995 2994 2994 2993 2993 2992 2992 2991 2990 2989 2988 2987 2986 2984 2983 2981 2980 2978 2977 2975 2973 2971 2969 2966 2963 2961 2958 2956 2953 2950 2947 2944 2941 2938 2935 2931 2928 2926 2924 2921 2919 2917 2915 2914 2912 2911 2909 2907 2906 2905 2904 2903 2902 2902 2902 2902 2902 2902 2902